Flag for Germany Weather past 2 weeks in Achim, Lower Saxony, Germany

Now
43 °F

Broken clouds.


Feels Like: 36 °F
Forecast: 38 / 50 °F
Wind: 12 mph from Southwest

Location: Bremen Airport

Current Time: Mar 27, 2015 at 6:48:51 AM

Latest Report: Mar 27, 2015 at 6:20 AM


Visibility: N/A

Pressure: 29.74 "Hg

Humidity: 87%

Dew point: 39 °F

Location of AchimLocation

Historic Weather in Achim — Graph

°F

Achim temperature yesterday

Maximum temperature yesterday: 46 °F (at 2:20 PM)
Minimum temperature yesterday: 39 °F (at 6:50 AM)
Average temperature yesterday: 42 °F

Past Weeks' High & Low Weather Summary

 TemperatureHumidityPressure
High61 °F (Mar 17, 3:50 PM)100% (Mar 12, 5:20 AM)30.54 "Hg (Mar 12, 5:20 AM)
Low28 °F (Mar 23, 5:20 AM)29% (Mar 19, 2:50 PM)29.65 "Hg (Mar 25, 1:50 PM)
Average43 °F78%30.17 "Hg
* Reported Mar 12 5:20 AM — Mar 27 5:50 AM, Achim, Weather by CustomWeather, © 2015

Note: Actual official high and low records may vary slightly from our data, if they occured in-between our weather recording intervals... More about our weather records

Advertising

Achim weather history for previous 24 hours

 ConditionsComfort  
Time TempWeatherWind HumidityBarometerVisibility
5:50 AM
Fri, Mar 27
43 °FPassing clouds.10 mph87%29.74 "HgN/A
5:20 AM43 °FPassing clouds.8 mph87%29.74 "HgN/A
4:50 AM41 °FPassing clouds.12 mph87%29.71 "HgN/A
4:20 AM43 °FLight rain. Overcast.13 mph93%29.71 "Hg5 mi
3:50 AM43 °FLight rain. Overcast.10 mph93%29.71 "Hg5 mi
3:20 AM43 °FOvercast.9 mph93%29.71 "Hg6 mi
2:50 AM43 °FOvercast.9 mph87%29.68 "Hg6 mi
2:20 AM43 °FOvercast.8 mph87%29.68 "HgN/A
1:50 AM41 °FOvercast.9 mph93%29.68 "HgN/A
1:20 AM41 °FOvercast.10 mph93%29.68 "HgN/A
12:50 AM41 °FOvercast.10 mph87%29.68 "HgN/A
12:20 AM41 °FPassing clouds.9 mph87%29.68 "HgN/A
11:50 PM
Thu, Mar 26
41 °FPassing clouds.10 mph87%29.68 "Hg5 mi
11:20 PM41 °FPassing clouds.8 mph87%29.71 "Hg5 mi
10:50 PM39 °FPassing clouds.9 mph93%29.71 "Hg5 mi
10:20 PM41 °FPassing clouds.9 mph87%29.71 "HgN/A
9:50 PM39 °FLight rain. Passing clouds.9 mph93%29.71 "HgN/A
9:20 PM41 °FQuite cool.8 mph87%29.71 "HgN/A
8:50 PM39 °FLight rain. Passing clouds.7 mph93%29.71 "HgN/A
8:20 PM39 °FPassing clouds.6 mph93%29.71 "HgN/A
7:50 PM39 °FLight rain. Mostly cloudy.5 mph93%29.71 "HgN/A
7:20 PM41 °FLight rain. Overcast.8 mph87%29.74 "HgN/A
6:50 PM41 °FLight rain. Mostly cloudy.12 mph87%29.74 "HgN/A
6:20 PM45 °FPartly sunny.10 mph66%29.71 "HgN/A
5:50 PM46 °FBroken clouds.7 mph62%29.71 "HgN/A
5:20 PM46 °FBroken clouds.8 mph62%29.71 "HgN/A
4:50 PM46 °FBroken clouds.8 mph57%29.71 "HgN/A
4:20 PM46 °FBroken clouds.8 mph57%29.71 "HgN/A
3:50 PM46 °FBroken clouds.8 mph57%29.71 "HgN/A
3:20 PM46 °FPartly sunny.12 mph62%29.71 "HgN/A
2:50 PM46 °FPartly sunny.6 mph57%29.71 "HgN/A
2:20 PM46 °FPartly sunny.8 mph57%29.71 "HgN/A
1:50 PM45 °FPartly sunny.6 mph61%29.71 "HgN/A
1:20 PM45 °FPartly sunny.5 mph61%29.74 "HgN/A
12:50 PM45 °FPartly sunny.6 mph61%29.74 "HgN/A
12:20 PM45 °FPartly sunny.8 mph66%29.74 "HgN/A
11:50 AM43 °FPartly sunny.8 mph66%29.74 "HgN/A
11:20 AM43 °FPartly sunny.9 mph66%29.74 "HgN/A
10:50 AM43 °FPartly sunny.9 mph71%29.74 "HgN/A
10:20 AM43 °FPartly sunny.9 mph71%29.74 "HgN/A
9:50 AM43 °FPartly sunny.8 mph71%29.74 "HgN/A
9:20 AM43 °FPartly sunny.10 mph76%29.74 "HgN/A
8:50 AM41 °FPartly sunny.9 mph87%29.74 "HgN/A
8:20 AM41 °FPartly sunny.6 mph87%29.74 "HgN/A
7:50 AM41 °FPartly sunny.6 mph87%29.74 "HgN/A
7:20 AM41 °FPartly sunny.7 mph87%29.74 "HgN/A
6:50 AM39 °FBroken clouds.6 mph93%29.74 "HgN/A
6:20 AM41 °FPartly sunny.9 mph87%29.74 "HgN/A
Weather by CustomWeather, © 2015

See weather overviewHow to use our weather pages